Location: Huntsville
(41.2590°N, 111.7678°W)
Time: 20:46:55
(UTC+00:00)

Explorer 7 - Pass Details

Date: 13 June 2021
Orbit: 484 x 676 km, 50.3° (Epoch: 30 July)

Event Time Altitude Azimuth Distance (km) Brightness Sun altitude
Exits shadow 09:06:42 - 282° (WNW) 2,736 10.2 -21.5°
Reaches altitude 10° 09:08:43 10° 292° (WNW) 2,036 9.7 -21.3°
Maximum altitude 09:12:44 27° 351° (N) 1,190 9.0 -21.0°
Drops below altitude 10° 09:16:34 10° 50° (NE) 1,939 10.6 -20.7°
Sets 09:19:04 0° 63° (ENE) 2,804 11.3 -20.5°
